1546088400.96,35344,0.0,0.0,-8.77,-9.67,-9.61,0,*5B
1546088402.2,35345,0.0,0.0,-8.75,-9.61,-9.57,0,*5B
1546088403.44,35346,0.0,0.0,-8.75,-9.61,-9.57,0,*58
1546088404.68,35347,0.0,0.0,-8.75,-9.57,-9.57,0,*5C
1546088405.92,35348,0.0,0.0,-8.75,-9.57,-9.57,0,*53
1546088407.16,35349,0.0,0.0,-8.75,-9.61,-9.57,0,*57
1546088408.41,35350,0.0,0.0,-8.77,-9.67,-9.61,0,*5E
1546088409.65,35351,0.0,0.0,-8.75,-9.61,-9.57,0,*5E
1546088410.89,35352,0.0,0.0,-8.75,-9.61,-9.57,0,*5D
1546088412.14,35353,0.0,0.0,-8.77,-9.67,-9.57,0,*58
1546088413.39,35354,0.0,0.0,-8.75,-9.61,-9.57,0,*5B
1546088414.63,35355,0.0,0.0,-8.75,-9.61,-9.57,0,*5A
1546088415.88,35356,0.0,0.0,-8.77,-9.61,-9.67,0,*58
1546088417.12,35357,0.0,0.0,-8.75,-9.57,-9.61,0,*58
1546088418.37,35358,0.0,0.0,-8.77,-9.61,-9.67,0,*56
1546088419.61,35359,0.0,0.0,-8.75,-9.57,-9.57,0,*53
1546088420.85,35360,0.0,0.0,-8.75,-9.57,-9.57,0,*59
1546088422.09,35361,0.0,0.0,-8.75,-9.57,-9.57,0,*58
1546088423.36,35362,0.0,0.0,-8.77,-9.61,-9.61,0,*59
1546088424.6,35363,0.0,0.0,-8.75,-9.57,-9.57,0,*5A
1546088425.88,35364,0.0,0.0,-8.77,-9.61,-9.61,0,*5F
1546088427.1,35365,0.0,0.0,-8.75,-9.67,-9.61,0,*5A
1546088428.35,35366,0.0,0.0,-8.77,-9.67,-9.61,0,*5B
1546088429.6,35367,0.0,0.0,-8.77,-9.67,-9.61,0,*5A
1546088430.86,35368,0.0,0.0,-8.77,-9.67,-9.61,0,*55
1546088432.13,35369,0.0,0.0,-8.77,-9.61,-9.57,0,*57
1546088433.38,35370,0.0,0.0,-8.77,-9.67,-9.61,0,*5C
1546088434.62,35371,0.0,0.0,-8.75,-9.61,-9.57,0,*5C
1546088435.86,35372,0.0,0.0,-8.75,-9.61,-9.57,0,*5F
1546088437.12,35373,0.0,0.0,-8.77,-9.67,-9.61,0,*5F
1546088438.37,35374,0.0,0.0,-8.77,-9.67,-9.61,0,*58
1546088439.6,35375,0.0,0.0,-8.75,-9.71,-9.57,0,*59
1546088440.83,35376,0.0,0.0,-8.77,-9.75,-9.67,0,*5F
1546088442.06,35377,0.0,0.0,-8.77,-9.67,-9.67,0,*5D
1546088443.29,35378,0.0,0.0,-8.77,-9.67,-9.67,0,*52
1546088444.52,35379,0.0,0.0,-8.77,-9.67,-9.67,0,*53
1546088445.75,35380,0.0,0.0,-8.77,-9.67,-9.67,0,*55
1546088446.99,35381,0.0,0.0,-8.75,-9.61,-9.61,0,*56
1546088448.22,35382,0.0,0.0,-8.77,-9.67,-9.67,0,*57
1546088449.45,35383,0.0,0.0,-8.77,-9.67,-9.67,0,*56
1546088450.68,35384,0.0,0.0,-8.77,-9.67,-9.67,0,*51
1546088451.91,35385,0.0,0.0,-8.77,-9.67,-9.67,0,*50
1546088453.14,35386,0.0,0.0,-8.77,-9.67,-9.67,0,*53
1546088454.37,35387,0.0,0.0,-8.77,-9.67,-9.67,0,*52
1546088455.6,35388,0.0,0.0,-8.77,-9.67,-9.67,0,*5D
1546088456.83,35389,0.0,0.0,-8.77,-9.67,-9.67,0,*5C
1546088458.07,35390,0.0,0.0,-8.75,-9.61,-9.61,0,*56
1546088459.3,35391,0.0,0.0,-8.77,-9.67,-9.67,0,*55
1546088460.53,35392,0.0,0.0,-8.77,-9.67,-9.67,0,*56
1546088461.76,35393,0.0,0.0,-8.81,-9.71,-9.71,0,*5E
1546088462.99,35394,0.0,0.0,-8.81,-9.71,-9.71,0,*59
1546088464.22,35395,0.0,0.0,-8.81,-9.71,-9.71,0,*58
1546088465.47,35396,0.0,0.0,-8.77,-9.67,-9.61,0,*54
1546088466.73,35397,0.0,0.0,-8.77,-9.67,-9.61,0,*55
1546088467.98,35398,0.0,0.0,-8.77,-9.67,-9.61,0,*5A
1546088469.23,35399,0.0,0.0,-8.77,-9.67,-9.61,0,*5B
1546088470.49,35400,0.0,0.0,-8.77,-9.67,-9.61,0,*5C
1546088471.74,35401,0.0,0.0,-8.77,-9.67,-9.61,0,*5D
1546088472.97,35402,0.0,0.0,-8.81,-9.71,-9.67,0,*56
1546088474.2,35403,0.0,0.0,-8.77,-9.67,-9.75,0,*5A
1546088475.42,35404,0.0,0.0,-8.81,-9.79,-9.67,0,*58
1546088476.65,35405,0.0,0.0,-8.81,-9.71,-9.67,0,*51
1546088477.88,35406,0.0,0.0,-8.81,-9.71,-9.67,0,*52
1546088479.11,35407,0.0,0.0,-8.81,-9.79,-9.71,0,*5C
1546088480.34,35408,0.0,0.0,-8.81,-9.71,-9.71,0,*5B
1546088481.55,35409,0.0,0.0,-8.83,-9.71,-9.79,0,*50
1546088482.78,35410,0.0,0.0,-8.81,-9.71,-9.71,0,*52
1546088483.98,35411,0.0,0.0,-8.83,-9.79,-9.71,0,*59
1546088485.21,35412,0.0,0.0,-8.81,-9.71,-9.71,0,*50
1546088486.44,35413,0.0,0.0,-8.81,-9.71,-9.67,0,*56
1546088487.64,35414,0.0,0.0,-8.83,-9.79,-9.67,0,*5B
1546088488.87,35415,0.0,0.0,-8.81,-9.79,-9.67,0,*58
1546088490.1,35416,0.0,0.0,-8.81,-9.71,-9.67,0,*53
1546088491.3,35417,0.0,0.0,-8.83,-9.79,-9.71,0,*5F
1546088492.53,35418,0.0,0.0,-8.81,-9.71,-9.71,0,*5A
1546088493.76,35419,0.0,0.0,-8.81,-9.71,-9.71,0,*5B
1546088494.99,35420,0.0,0.0,-8.81,-9.71,-9.71,0,*51
1546088496.2,35421,0.0,0.0,-8.83,-9.71,-9.71,0,*52
1546088497.43,35422,0.0,0.0,-8.81,-9.71,-9.71,0,*53
1546088498.66,35423,0.0,0.0,-8.81,-9.71,-9.71,0,*52
1546088499.89,35424,0.0,0.0,-8.81,-9.71,-9.71,0,*55
1546088501.12,35425,0.0,0.0,-8.81,-9.71,-9.71,0,*54
1546088502.32,35426,0.0,0.0,-8.83,-9.71,-9.71,0,*55
1546088503.53,35427,0.0,0.0,-8.83,-9.71,-9.79,0,*5C
1546088504.76,35428,0.0,0.0,-8.81,-9.71,-9.71,0,*59
1546088505.97,35429,0.0,0.0,-8.83,-9.71,-9.71,0,*5A
1546088507.17,35430,0.0,0.0,-8.83,-9.71,-9.71,0,*52
1546088508.37,35431,0.0,0.0,-8.83,-9.79,-9.79,0,*53
1546088509.6,35432,0.0,0.0,-8.81,-9.71,-9.71,0,*52
1546088510.81,35433,0.0,0.0,-8.83,-9.71,-9.71,0,*51
1546088512.04,35434,0.0,0.0,-8.81,-9.71,-9.71,0,*54
1546088513.25,35435,0.0,0.0,-8.83,-9.71,-9.71,0,*57
1546088514.48,35436,0.0,0.0,-8.81,-9.71,-9.71,0,*56
1546088515.68,35437,0.0,0.0,-8.83,-9.71,-9.71,0,*55
1546088516.89,35438,0.0,0.0,-8.83,-9.71,-9.71,0,*5A
1546088518.1,35439,0.0,0.0,-8.83,-9.71,-9.71,0,*5B
1546088519.3,35440,0.0,0.0,-8.83,-9.79,-9.71,0,*5D
1546088520.53,35441,0.0,0.0,-8.81,-9.71,-9.71,0,*56
1546088521.76,35442,0.0,0.0,-8.81,-9.71,-9.71,0,*55
1546088522.96,35443,0.0,0.0,-8.83,-9.71,-9.71,0,*56
1546088524.19,35444,0.0,0.0,-8.81,-9.71,-9.71,0,*53
1546088525.42,35445,0.0,0.0,-8.81,-9.71,-9.71,0,*52
1546088526.63,35446,0.0,0.0,-8.83,-9.71,-9.71,0,*53
1546088527.84,35447,0.0,0.0,-8.83,-9.71,-9.71,0,*52
1546088529.04,35448,0.0,0.0,-8.83,-9.71,-9.71,0,*5D
1546088530.25,35449,0.0,0.0,-8.83,-9.79,-9.71,0,*54
1546088531.45,35450,0.0,0.0,-8.83,-9.71,-9.71,0,*54
1546088532.66,35451,0.0,0.0,-8.83,-9.71,-9.79,0,*5D
1546088533.86,35452,0.0,0.0,-8.83,-9.79,-9.71,0,*5E
1546088535.06,35453,0.0,0.0,-8.83,-9.79,-9.71,0,*5F
1546088536.27,35454,0.0,0.0,-8.83,-9.71,-9.71,0,*50
1546088537.5,35455,0.0,0.0,-8.81,-9.71,-9.71,0,*53
1546088538.7,35456,0.0,0.0,-8.83,-9.79,-9.71,0,*5A
1546088539.91,35457,0.0,0.0,-8.83,-9.71,-9.71,0,*53
1546088541.11,35458,0.0,0.0,-8.85,-9.71,-9.71,0,*5A
1546088542.32,35459,0.0,0.0,-8.85,-9.71,-9.71,0,*5B
1546088543.53,35460,0.0,0.0,-8.85,-9.71,-9.71,0,*51
1546088544.73,35461,0.0,0.0,-8.85,-9.71,-9.71,0,*50
1546088545.94,35462,0.0,0.0,-8.83,-9.79,-9.71,0,*5D
1546088547.14,35463,0.0,0.0,-8.83,-9.71,-9.71,0,*54
1546088548.37,35464,0.0,0.0,-8.81,-9.71,-9.71,0,*51
1546088549.57,35465,0.0,0.0,-8.83,-9.79,-9.71,0,*5A
1546088550.78,35466,0.0,0.0,-8.83,-9.71,-9.67,0,*56
1546088551.99,35467,0.0,0.0,-8.83,-9.71,-9.71,0,*50
1546088553.19,35468,0.0,0.0,-8.83,-9.71,-9.71,0,*5F
1546088554.39,35469,0.0,0.0,-8.83,-9.79,-9.71,0,*56
1546088555.6,35470,0.0,0.0,-8.83,-9.79,-9.71,0,*5E
1546088556.8,35471,0.0,0.0,-8.83,-9.71,-9.71,0,*57
1546088558.01,35472,0.0,0.0,-8.83,-9.79,-9.71,0,*5C
1546088559.21,35473,0.0,0.0,-8.85,-9.71,-9.71,0,*53
1546088560.41,35474,0.0,0.0,-8.85,-9.79,-9.79,0,*54
1546088561.64,35475,0.0,0.0,-8.87,-9.75,-9.75,0,*57
1546088562.85,35476,0.0,0.0,-8.85,-9.71,-9.71,0,*56
1546088564.06,35477,0.0,0.0,-8.85,-9.71,-9.71,0,*57
1546088565.26,35478,0.0,0.0,-8.85,-9.71,-9.71,0,*58
1546088566.47,35479,0.0,0.0,-8.85,-9.71,-9.79,0,*51
1546088567.67,35480,0.0,0.0,-8.85,-9.79,-9.71,0,*57
1546088568.88,35481,0.0,0.0,-8.85,-9.71,-9.71,0,*5E
1546088570.08,35482,0.0,0.0,-8.85,-9.71,-9.71,0,*5D
1546088571.29,35483,0.0,0.0,-8.85,-9.71,-9.71,0,*5C
1546088572.5,35484,0.0,0.0,-8.85,-9.71,-9.71,0,*5B
1546088573.7,35485,0.0,0.0,-8.85,-9.79,-9.71,0,*52
1546088574.9,35486,0.0,0.0,-8.85,-9.71,-9.71,0,*59
1546088576.11,35487,0.0,0.0,-8.85,-9.71,-9.71,0,*58
1546088577.32,35488,0.0,0.0,-8.85,-9.71,-9.71,0,*57
1546088578.52,35489,0.0,0.0,-8.85,-9.71,-9.71,0,*56
1546088579.75,35490,0.0,0.0,-8.87,-9.75,-9.75,0,*5C
1546088580.96,35491,0.0,0.0,-8.85,-9.71,-9.71,0,*5F
1546088582.16,35492,0.0,0.0,-8.85,-9.79,-9.71,0,*54
1546088583.37,35493,0.0,0.0,-8.85,-9.71,-9.71,0,*5D
1546088584.57,35494,0.0,0.0,-8.85,-9.71,-9.71,0,*5A
1546088585.82,35495,0.0,0.0,-8.87,-9.83,-9.75,0,*50
1546088587.02,35496,0.0,0.0,-8.85,-9.79,-9.71,0,*50
1546088588.23,35497,0.0,0.0,-8.85,-9.71,-9.71,0,*59
1546088589.44,35498,0.0,0.0,-8.85,-9.71,-9.71,0,*56
1546088590.66,35499,0.0,0.0,-8.87,-9.75,-9.75,0,*55
1546088591.87,35500,0.0,0.0,-8.85,-9.71,-9.71,0,*56
1546088593.08,35501,0.0,0.0,-8.85,-9.71,-9.71,0,*57
1546088594.28,35502,0.0,0.0,-8.85,-9.71,-9.71,0,*54
1546088595.49,35503,0.0,0.0,-8.85,-9.71,-9.71,0,*55
1546088596.69,35504,0.0,0.0,-8.85,-9.71,-9.71,0,*52
1546088597.9,35505,0.0,0.0,-8.85,-9.71,-9.71,0,*53
1546088599.13,35506,0.0,0.0,-8.87,-9.75,-9.75,0,*52
1546088600.34,35507,0.0,0.0,-8.85,-9.71,-9.71,0,*51
1546088601.54,35508,0.0,0.0,-8.85,-9.79,-9.71,0,*56
1546088602.77,35509,0.0,0.0,-8.87,-9.75,-9.75,0,*5D
1546088603.97,35510,0.0,0.0,-8.85,-9.79,-9.71,0,*5F
1546088605.18,35511,0.0,0.0,-8.85,-9.71,-9.71,0,*56
1546088606.38,35512,0.0,0.0,-8.85,-9.71,-9.79,0,*5D
1546088607.61,35513,0.0,0.0,-8.87,-9.75,-9.75,0,*56
1546088608.84,35514,0.0,0.0,-8.87,-9.75,-9.75,0,*51
1546088610.06,35515,0.0,0.0,-8.85,-9.83,-9.75,0,*5B
1546088611.28,35516,0.0,0.0,-8.87,-9.75,-9.75,0,*53
1546088612.49,35517,0.0,0.0,-8.85,-9.79,-9.75,0,*5C
1546088613.69,35518,0.0,0.0,-8.85,-9.75,-9.75,0,*5F
1546088614.92,35519,0.0,0.0,-8.87,-9.75,-9.75,0,*5C
1546088616.12,35520,0.0,0.0,-8.85,-9.71,-9.75,0,*50
1546088617.35,35521,0.0,0.0,-8.87,-9.75,-9.75,0,*57
1546088618.56,35522,0.0,0.0,-8.85,-9.71,-9.71,0,*56
1546088619.76,35523,0.0,0.0,-8.85,-9.71,-9.71,0,*57
1546088620.99,35524,0.0,0.0,-8.87,-9.75,-9.75,0,*52
1546088622.22,35525,0.0,0.0,-8.87,-9.75,-9.75,0,*53
1546088623.44,35526,0.0,0.0,-8.87,-9.75,-9.75,0,*50
1546088624.69,35527,0.0,0.0,-8.87,-9.83,-9.75,0,*58
1546088625.92,35528,0.0,0.0,-8.87,-9.75,-9.75,0,*5E
1546088627.16,35529,0.0,0.0,-8.87,-9.83,-9.75,0,*56
1546088628.39,35530,0.0,0.0,-8.87,-9.75,-9.75,0,*57
1546088629.62,35531,0.0,0.0,-8.87,-9.75,-9.75,0,*56
1546088630.87,35532,0.0,0.0,-8.87,-9.75,-9.83,0,*5C
1546088632.1,35533,0.0,0.0,-8.87,-9.75,-9.75,0,*54
1546088633.33,35534,0.0,0.0,-8.87,-9.75,-9.75,0,*53
1546088634.57,35535,0.0,0.0,-8.87,-9.83,-9.75,0,*5B
1546088635.8,35536,0.0,0.0,-8.87,-9.75,-9.75,0,*51
1546088637.03,35537,0.0,0.0,-8.87,-9.75,-9.75,0,*50
1546088638.23,35538,0.0,0.0,-8.85,-9.79,-9.71,0,*55
1546088639.45,35539,0.0,0.0,-8.89,-9.83,-9.75,0,*59
1546088640.68,35540,0.0,0.0,-8.87,-9.75,-9.75,0,*50
1546088641.91,35541,0.0,0.0,-8.87,-9.75,-9.75,0,*51
1546088643.15,35542,0.0,0.0,-8.87,-9.83,-9.75,0,*5B
1546088644.36,35543,0.0,0.0,-8.85,-9.71,-9.71,0,*51
1546088645.58,35544,0.0,0.0,-8.89,-9.83,-9.75,0,*53
1546088646.78,35545,0.0,0.0,-8.89,-9.75,-9.75,0,*5B
1546088648.01,35546,0.0,0.0,-8.87,-9.75,-9.75,0,*56
1546088649.27,35547,0.0,0.0,-8.87,-9.83,-9.83,0,*57
1546088650.5,35548,0.0,0.0,-8.87,-9.75,-9.75,0,*58
1546088651.7,35549,0.0,0.0,-8.89,-9.75,-9.75,0,*57
1546088652.92,35550,0.0,0.0,-8.89,-9.83,-9.75,0,*56
1546088654.12,35551,0.0,0.0,-8.89,-9.75,-9.75,0,*5E
1546088655.33,35552,0.0,0.0,-8.89,-9.75,-9.75,0,*5D
1546088656.55,35553,0.0,0.0,-8.89,-9.83,-9.75,0,*55
1546088657.76,35554,0.0,0.0,-8.89,-9.83,-9.75,0,*52
1546088658.98,35555,0.0,0.0,-8.89,-9.83,-9.75,0,*53
1546088660.19,35556,0.0,0.0,-8.89,-9.75,-9.75,0,*59
1546088661.39,35557,0.0,0.0,-8.89,-9.75,-9.75,0,*58
1546088662.61,35558,0.0,0.0,-8.89,-9.83,-9.75,0,*5E
1546088663.82,35559,0.0,0.0,-8.91,-9.89,-9.79,0,*50
1546088665.06,35560,0.0,0.0,-8.89,-9.83,-9.83,0,*5C
1546088666.28,35561,0.0,0.0,-8.89,-9.83,-9.75,0,*54
1546088667.5,35562,0.0,0.0,-8.89,-9.83,-9.75,0,*57
1546088668.72,35563,0.0,0.0,-8.89,-9.83,-9.75,0,*56
1546088669.92,35564,0.0,0.0,-8.89,-9.75,-9.75,0,*58
1546088671.12,35565,0.0,0.0,-8.89,-9.75,-9.75,0,*59
1546088672.32,35566,0.0,0.0,-8.89,-9.75,-9.75,0,*5A
1546088673.55,35567,0.0,0.0,-8.91,-9.79,-9.79,0,*52
1546088674.75,35568,0.0,0.0,-8.89,-9.75,-9.75,0,*54
1546088675.95,35569,0.0,0.0,-8.89,-9.75,-9.75,0,*55
1546088677.15,35570,0.0,0.0,-8.89,-9.75,-9.75,0,*5D
1546088678.4,35571,0.0,0.0,-8.87,-9.83,-9.75,0,*5B
1546088679.6,35572,0.0,0.0,-8.89,-9.75,-9.75,0,*5F
1546088680.81,35573,0.0,0.0,-8.91,-9.89,-9.79,0,*58
1546088682.03,35574,0.0,0.0,-8.91,-9.79,-9.79,0,*50
1546088683.25,35575,0.0,0.0,-8.89,-9.83,-9.75,0,*51
1546088684.45,35576,0.0,0.0,-8.89,-9.75,-9.75,0,*5B
1546088685.68,35577,0.0,0.0,-8.91,-9.79,-9.79,0,*53
1546088686.9,35578,0.0,0.0,-8.89,-9.75,-9.83,0,*5C
1546088688.12,35579,0.0,0.0,-8.91,-9.79,-9.79,0,*5D
1546088689.32,35580,0.0,0.0,-8.89,-9.75,-9.75,0,*52
1546088690.54,35581,0.0,0.0,-8.91,-9.89,-9.79,0,*55
1546088691.75,35582,0.0,0.0,-8.91,-9.89,-9.79,0,*56
1546088692.97,35583,0.0,0.0,-8.89,-9.83,-9.75,0,*58
1546088694.18,35584,0.0,0.0,-8.91,-9.89,-9.79,0,*50
1546088695.4,35585,0.0,0.0,-8.91,-9.89,-9.79,0,*51
1546088696.6,35586,0.0,0.0,-8.89,-9.75,-9.75,0,*54
1546088697.82,35587,0.0,0.0,-8.91,-9.79,-9.89,0,*53
1546088699.04,35588,0.0,0.0,-8.89,-9.83,-9.75,0,*53
1546088700.26,35589,0.0,0.0,-8.91,-9.79,-9.79,0,*52
1546088701.47,35590,0.0,0.0,-8.91,-9.89,-9.75,0,*59
1546088702.68,35591,0.0,0.0,-8.91,-9.89,-9.89,0,*5B
1546088703.91,35592,0.0,0.0,-8.91,-9.79,-9.79,0,*58
1546088705.13,35593,0.0,0.0,-8.91,-9.79,-9.79,0,*59
1546088706.35,35594,0.0,0.0,-8.89,-9.83,-9.75,0,*5E
1546088707.55,35595,0.0,0.0,-8.89,-9.75,-9.75,0,*56
1546088708.77,35596,0.0,0.0,-8.91,-9.79,-9.79,0,*5C
1546088709.97,35597,0.0,0.0,-8.89,-9.75,-9.75,0,*54
1546088711.19,35598,0.0,0.0,-8.91,-9.89,-9.79,0,*5D
1546088712.41,35599,0.0,0.0,-8.91,-9.79,-9.79,0,*53
1546088713.63,35600,0.0,0.0,-8.91,-9.79,-9.79,0,*50
1546088714.84,35601,0.0,0.0,-8.91,-9.89,-9.89,0,*51
1546088716.05,35602,0.0,0.0,-8.91,-9.89,-9.79,0,*5D
1546088717.27,35603,0.0,0.0,-8.91,-9.89,-9.79,0,*5C
1546088718.49,35604,0.0,0.0,-8.91,-9.79,-9.89,0,*5B
1546088719.71,35605,0.0,0.0,-8.89,-9.83,-9.75,0,*55
1546088720.93,35606,0.0,0.0,-8.91,-9.79,-9.79,0,*56
1546088722.14,35607,0.0,0.0,-8.91,-9.89,-9.79,0,*58
1546088723.36,35608,0.0,0.0,-8.91,-9.89,-9.79,0,*57
1546088724.58,35609,0.0,0.0,-8.91,-9.79,-9.79,0,*59
1546088725.8,35610,0.0,0.0,-8.91,-9.79,-9.79,0,*51
1546088727.02,35611,0.0,0.0,-8.91,-9.79,-9.79,0,*50
1546088728.24,35612,0.0,0.0,-8.91,-9.79,-9.89,0,*5C
1546088729.47,35613,0.0,0.0,-8.91,-9.79,-9.79,0,*52
1546088730.69,35614,0.0,0.0,-8.91,-9.79,-9.79,0,*55
1546088731.91,35615,0.0,0.0,-8.91,-9.79,-9.89,0,*5B
1546088733.12,35616,0.0,0.0,-8.91,-9.89,-9.79,0,*58
1546088734.33,35617,0.0,0.0,-8.91,-9.89,-9.89,0,*56
1546088735.54,35618,0.0,0.0,-8.91,-9.89,-9.89,0,*59
1546088736.79,35619,0.0,0.0,-8.93,-9.83,-9.83,0,*5A
1546088737.99,35620,0.0,0.0,-8.89,-9.75,-9.75,0,*5B
1546088739.2,35621,0.0,0.0,-8.91,-9.89,-9.89,0,*53
1546088740.42,35622,0.0,0.0,-8.91,-9.79,-9.79,0,*50
1546088741.67,35623,0.0,0.0,-8.93,-9.83,-9.83,0,*53
1546088742.89,35624,0.0,0.0,-8.93,-9.93,-9.83,0,*55
1546088744.11,35625,0.0,0.0,-8.93,-9.93,-9.83,0,*54
1546088745.35,35626,0.0,0.0,-8.93,-9.83,-9.83,0,*56
1546088746.57,35627,0.0,0.0,-8.95,-9.93,-9.93,0,*51
1546088747.8,35628,0.0,0.0,-8.93,-9.93,-9.83,0,*59
1546088749.02,35629,0.0,0.0,-8.93,-9.83,-9.93,0,*58
1546088750.26,35630,0.0,0.0,-8.93,-9.83,-9.83,0,*51
1546088751.51,35631,0.0,0.0,-8.93,-9.83,-9.83,0,*50
1546088752.73,35632,0.0,0.0,-8.93,-9.93,-9.83,0,*52
1546088753.97,35633,0.0,0.0,-8.95,-9.83,-9.93,0,*55
1546088755.22,35634,0.0,0.0,-8.93,-9.83,-9.83,0,*55
1546088756.44,35635,0.0,0.0,-8.93,-9.93,-9.83,0,*55
1546088757.68,35636,0.0,0.0,-8.93,-9.83,-9.83,0,*57
1546088758.9,35637,0.0,0.0,-8.93,-9.93,-9.83,0,*57
1546088760.13,35638,0.0,0.0,-8.93,-9.83,-9.93,0,*58
1546088761.37,35639,0.0,0.0,-8.93,-9.83,-9.83,0,*58
1546088762.62,35640,0.0,0.0,-8.93,-9.83,-9.83,0,*56
1546088763.81,35641,0.0,0.0,-8.93,-9.93,-9.93,0,*57
1546088765.06,35642,0.0,0.0,-8.93,-9.83,-9.83,0,*54
1546088766.27,35643,0.0,0.0,-8.91,-9.89,-9.79,0,*58
1546088767.52,35644,0.0,0.0,-8.93,-9.83,-9.83,0,*52
1546088768.74,35645,0.0,0.0,-8.95,-9.93,-9.93,0,*55
1546088769.96,35646,0.0,0.0,-8.93,-9.93,-9.83,0,*51
1546088771.16,35647,0.0,0.0,-8.93,-9.93,-9.93,0,*51
1546088772.38,35648,0.0,0.0,-8.93,-9.93,-9.83,0,*5F
1546088773.57,35649,0.0,0.0,-8.93,-9.93,-9.93,0,*5F
1546088774.8,35650,0.0,0.0,-8.93,-9.93,-9.83,0,*56
1546088776.02,35651,0.0,0.0,-8.93,-9.93,-9.83,0,*57
1546088777.29,35652,0.0,0.0,-8.95,-9.83,-9.83,0,*53
1546088778.48,35653,0.0,0.0,-8.93,-9.93,-9.93,0,*54
1546088779.73,35654,0.0,0.0,-8.93,-9.83,-9.83,0,*53
1546088780.97,35655,0.0,0.0,-8.93,-9.83,-9.83,0,*52
1546088782.22,35656,0.0,0.0,-8.93,-9.83,-9.83,0,*51
1546088783.44,35657,0.0,0.0,-8.93,-9.93,-9.83,0,*51
1546088784.66,35658,0.0,0.0,-8.95,-9.93,-9.93,0,*59
1546088785.86,35659,0.0,0.0,-8.93,-9.93,-9.93,0,*5E
1546088787.13,35660,0.0,0.0,-8.95,-9.83,-9.83,0,*52
1546088788.37,35661,0.0,0.0,-8.93,-9.83,-9.83,0,*55
1546088789.61,35662,0.0,0.0,-8.95,-9.93,-9.83,0,*51
1546088790.88,35663,0.0,0.0,-8.95,-9.83,-9.83,0,*51
1546088792.1,35664,0.0,0.0,-8.93,-9.93,-9.83,0,*51
1546088793.3,35665,0.0,0.0,-8.93,-9.93,-9.93,0,*51
1546088794.54,35666,0.0,0.0,-8.93,-9.83,-9.83,0,*52
1546088795.79,35667,0.0,0.0,-8.93,-9.83,-9.83,0,*53
1546088797.01,35668,0.0,0.0,-8.93,-9.83,-9.93,0,*5D
1546088798.23,35669,0.0,0.0,-8.95,-9.93,-9.93,0,*5B
1546088799.48,35670,0.0,0.0,-8.95,-9.93,-9.83,0,*52
1546088800.72,35671,0.0,0.0,-8.95,-9.93,-9.83,0,*53
1546088801.99,35672,0.0,0.0,-8.95,-9.83,-9.83,0,*51
1546088803.23,35673,0.0,0.0,-8.93,-9.83,-9.83,0,*56
1546088804.5,35674,0.0,0.0,-8.95,-9.83,-9.83,0,*57
1546088805.77,35675,0.0,0.0,-8.95,-9.83,-9.83,0,*56
1546088807.01,35676,0.0,0.0,-8.95,-9.93,-9.83,0,*54
1546088808.23,35677,0.0,0.0,-8.95,-9.93,-9.93,0,*54
1546088809.5,35678,0.0,0.0,-8.95,-9.83,-9.83,0,*5B
1546088810.77,35679,0.0,0.0,-8.95,-9.83,-9.83,0,*5A
1546088812.02,35680,0.0,0.0,-8.95,-9.83,-9.93,0,*5D
1546088813.26,35681,0.0,0.0,-8.95,-9.93,-9.83,0,*5C
1546088814.45,35682,0.0,0.0,-8.97,-9.89,-9.89,0,*5C
1546088815.72,35683,0.0,0.0,-8.95,-9.83,-9.83,0,*5F
1546088816.99,35684,0.0,0.0,-8.95,-9.83,-9.83,0,*58
1546088818.21,35685,0.0,0.0,-8.95,-9.93,-9.93,0,*59
1546088819.48,35686,0.0,0.0,-8.95,-9.83,-9.83,0,*5A
1546088820.72,35687,0.0,0.0,-8.95,-9.93,-9.83,0,*5A
1546088821.96,35688,0.0,0.0,-8.95,-9.93,-9.83,0,*55
1546088823.18,35689,0.0,0.0,-8.93,-9.93,-9.83,0,*52
1546088824.43,35690,0.0,0.0,-8.95,-9.93,-9.83,0,*5C
1546088825.67,35691,0.0,0.0,-8.95,-9.93,-9.83,0,*5D
1546088826.94,35692,0.0,0.0,-8.95,-9.83,-9.83,0,*5F
1546088828.19,35693,0.0,0.0,-8.95,-9.93,-9.83,0,*5F
1546088829.45,35694,0.0,0.0,-8.95,-9.83,-9.83,0,*59
1546088830.65,35695,0.0,0.0,-8.97,-9.97,-9.97,0,*5A
1546088831.89,35696,0.0,0.0,-8.95,-9.93,-9.83,0,*5A
1546088833.14,35697,0.0,0.0,-8.95,-9.83,-9.93,0,*5B
1546088834.41,35698,0.0,0.0,-8.95,-9.83,-9.83,0,*55
1546088835.65,35699,0.0,0.0,-8.95,-9.93,-9.83,0,*55
1546088836.84,35700,0.0,0.0,-8.97,-9.97,-9.89,0,*58
1546088838.04,35701,0.0,0.0,-8.97,-9.97,-9.89,0,*59
1546088839.23,35702,0.0,0.0,-8.97,-9.97,-9.89,0,*5A
1546088840.43,35703,0.0,0.0,-8.97,-9.97,-9.89,0,*5B
1546088841.62,35704,0.0,0.0,-8.97,-9.97,-9.89,0,*5C
1546088842.82,35705,0.0,0.0,-8.97,-9.97,-9.97,0,*52
1546088844.01,35706,0.0,0.0,-8.97,-9.97,-9.89,0,*5E
1546088845.23,35707,0.0,0.0,-8.99,-9.97,-9.89,0,*51
1546088846.44,35708,0.0,0.0,-8.99,-9.97,-9.89,0,*5E
1546088847.64,35709,0.0,0.0,-8.97,-9.97,-9.97,0,*5E
1546088848.86,35710,0.0,0.0,-8.99,-9.97,-9.97,0,*58
1546088850.05,35711,0.0,0.0,-8.97,-9.97,-9.89,0,*58
1546088851.25,35712,0.0,0.0,-8.97,-9.97,-9.97,0,*54
1546088852.44,35713,0.0,0.0,-8.97,-9.97,-9.89,0,*5A
1546088853.63,35714,0.0,0.0,-8.97,-9.89,-9.89,0,*52
1546088854.82,35715,0.0,0.0,-8.97,-9.89,-9.89,0,*53
1546088856.02,35716,0.0,0.0,-8.97,-9.97,-9.97,0,*50
1546088857.21,35717,0.0,0.0,-8.97,-9.97,-9.89,0,*5E
1546088858.41,35718,0.0,0.0,-8.97,-9.97,-9.89,0,*51
1546088859.6,35719,0.0,0.0,-8.97,-9.89,-9.97,0,*50
1546088860.79,35720,0.0,0.0,-8.97,-9.89,-9.97,0,*5A
1546088862.01,35721,0.0,0.0,-8.99,-9.89,-9.97,0,*55
1546088863.2,35722,0.0,0.0,-8.97,-9.97,-9.89,0,*58
1546088864.42,35723,0.0,0.0,-8.99,-9.97,-9.89,0,*57
1546088865.61,35724,0.0,0.0,-8.97,-9.89,-9.89,0,*51
1546088866.82,35725,0.0,0.0,-8.99,-9.89,-9.89,0,*5E
1546088868.02,35726,0.0,0.0,-8.97,-9.97,-9.89,0,*5C
1546088869.23,35727,0.0,0.0,-8.99,-9.89,-9.89,0,*5C
1546088870.45,35728,0.0,0.0,-8.99,-9.97,-9.89,0,*5C
1546088871.67,35729,0.0,0.0,-8.99,-9.97,-9.89,0,*5D
1546088872.88,35730,0.0,0.0,-8.99,-9.97,-9.89,0,*55
1546088874.08,35731,0.0,0.0,-8.97,-9.97,-9.97,0,*55
1546088875.3,35732,0.0,0.0,-8.99,-9.97,-9.89,0,*57
1546088876.49,35733,0.0,0.0,-8.97,-9.89,-9.89,0,*57
1546088877.68,35734,0.0,0.0,-8.97,-9.89,-9.97,0,*5F
1546088878.87,35735,0.0,0.0,-8.97,-9.97,-9.89,0,*5E
1546088880.09,35736,0.0,0.0,-8.99,-9.97,-9.89,0,*53
1546088881.31,35737,0.0,0.0,-8.99,-9.97,-9.89,0,*52
1546088882.53,35738,0.0,0.0,-8.99,-9.97,-9.97,0,*52
1546088883.72,35739,0.0,0.0,-8.97,-9.89,-9.89,0,*5D
1546088884.91,35740,0.0,0.0,-8.97,-9.97,-9.97,0,*53
1546088886.13,35741,0.0,0.0,-8.99,-9.89,-9.97,0,*53
1546088887.34,35742,0.0,0.0,-8.99,-9.97,-9.89,0,*50
1546088888.53,35743,0.0,0.0,-8.97,-9.89,-9.89,0,*50
1546088889.75,35744,0.0,0.0,-8.99,-9.97,-9.89,0,*56
1546088890.97,35745,0.0,0.0,-8.99,-9.97,-9.89,0,*57
1546088892.19,35746,0.0,0.0,-8.99,-9.97,-9.89,0,*54
1546088893.41,35747,0.0,0.0,-8.99,-9.97,-9.89,0,*55
1546088894.62,35748,0.0,0.0,-8.99,-9.97,-9.89,0,*5A
1546088895.84,35749,0.0,0.0,-8.99,-9.89,-9.89,0,*54
1546088897.05,35750,0.0,0.0,-8.99,-9.89,-9.97,0,*53
1546088898.27,35751,0.0,0.0,-8.99,-9.89,-9.97,0,*52
1546088899.49,35752,0.0,0.0,-8.99,-9.97,-9.97,0,*5E
1546088900.7,35753,0.0,0.0,-8.99,-9.89,-9.97,0,*50
1546088901.91,35754,0.0,0.0,-8.99,-9.89,-9.97,0,*57
1546088903.13,35755,0.0,0.0,-8.99,-9.97,-9.89,0,*56
1546088904.35,35756,0.0,0.0,-8.99,-9.97,-9.89,0,*55
1546088905.54,35757,0.0,0.0,-8.97,-9.97,-9.89,0,*5A
1546088906.76,35758,0.0,0.0,-8.99,-9.97,-9.97,0,*54
1546088907.99,35759,0.0,0.0,-9.03,-9.93,-9.93,0,*57
1546088909.2,35760,0.0,0.0,-8.99,-9.97,-9.89,0,*50
1546088910.42,35761,0.0,0.0,-8.99,-9.97,-9.89,0,*51
1546088911.64,35762,0.0,0.0,-8.99,-9.97,-9.97,0,*5D
1546088912.85,35763,0.0,0.0,-8.99,-9.89,-9.89,0,*5C
1546088914.07,35764,0.0,0.0,-8.99,-9.89,-9.97,0,*54
1546088915.29,35765,0.0,0.0,-8.99,-9.97,-9.89,0,*55
1546088916.5,35766,0.0,0.0,-8.99,-9.97,-9.97,0,*59
1546088917.72,35767,0.0,0.0,-8.99,-9.97,-9.97,0,*58
1546088918.94,35768,0.0,0.0,-8.99,-9.97,-9.97,0,*57
1546088920.16,35769,0.0,0.0,-8.99,-9.89,-9.97,0,*59
1546088921.38,35770,0.0,0.0,-8.99,-9.97,-9.89,0,*51
1546088922.57,35771,0.0,0.0,-8.97,-9.97,-9.97,0,*51
1546088923.8,35772,0.0,0.0,-8.99,-10.01,-9.97,0,*6B
1546088925.03,35773,0.0,0.0,-9.03,-10.01,-9.93,0,*6C
1546088926.26,35774,0.0,0.0,-9.03,-9.93,-10.01,0,*6B
1546088927.48,35775,0.0,0.0,-8.99,-9.97,-9.89,0,*54
1546088928.69,35776,0.0,0.0,-8.99,-9.97,-9.89,0,*57
1546088929.92,35777,0.0,0.0,-9.03,-10.01,-9.93,0,*68
1546088931.15,35778,0.0,0.0,-9.03,-9.93,-9.93,0,*54
1546088932.36,35779,0.0,0.0,-9.05,-10.01,-9.93,0,*60
1546088933.58,35780,0.0,0.0,-9.03,-9.93,-9.93,0,*53
1546088934.81,35781,0.0,0.0,-9.03,-10.01,-9.93,0,*61
1546088936.02,35782,0.0,0.0,-9.05,-10.01,-9.93,0,*64
1546088937.25,35783,0.0,0.0,-9.03,-10.01,-9.93,0,*63
1546088938.46,35784,0.0,0.0,-8.99,-9.97,-9.89,0,*5A
1546088939.69,35785,0.0,0.0,-9.03,-10.01,-9.93,0,*65
1546088940.93,35786,0.0,0.0,-9.03,-10.01,-9.93,0,*66
1546088942.16,35787,0.0,0.0,-9.03,-10.01,-9.93,0,*67
1546088943.37,35788,0.0,0.0,-9.05,-10.01,-10.01,0,*5D
1546088944.58,35789,0.0,0.0,-9.05,-10.01,-9.93,0,*6F
1546088945.8,35790,0.0,0.0,-9.03,-9.93,-9.93,0,*52
1546088947.04,35791,0.0,0.0,-9.03,-9.93,-10.01,0,*60
1546088948.27,35792,0.0,0.0,-9.03,-9.93,-10.01,0,*63
1546088949.5,35793,0.0,0.0,-9.03,-10.01,-9.93,0,*62
1546088950.73,35794,0.0,0.0,-9.03,-10.01,-9.93,0,*65
1546088951.94,35795,0.0,0.0,-9.05,-10.01,-9.93,0,*62
1546088953.17,35796,0.0,0.0,-9.03,-10.01,-9.93,0,*67
1546088954.38,35797,0.0,0.0,-9.05,-10.01,-10.01,0,*53
1546088955.59,35798,0.0,0.0,-9.05,-10.01,-9.93,0,*6F
1546088956.8,35799,0.0,0.0,-9.05,-9.93,-10.01,0,*6E
1546088958.04,35800,0.0,0.0,-9.03,-10.01,-10.01,0,*54
1546088959.26,35801,0.0,0.0,-9.05,-10.01,-10.01,0,*53
1546088960.49,35802,0.0,0.0,-9.03,-10.01,-9.93,0,*65
1546088961.72,35803,0.0,0.0,-9.03,-10.01,-9.93,0,*64
1546088962.95,35804,0.0,0.0,-9.03,-10.01,-9.93,0,*63